Regional Weather Roundup
Issued by NWS Charleston, SC

Current Version | Previous Version | Text Only | Print | Product List | Glossary Off
Versions: 1 2 3 4 5 6 7 8 9 10 11 12 13 14 15 16 17 18 19 20 21 22 23 24 25 26 27 28 29 30 31 32 33 34 35 36 37 38 39 40 41 42 43 44 45 46 47 48 49 50

000
ASUS42 KCHS 251628
RWRCHS

Regional Weather Roundup
National Weather Service Charleston SC
1200 PM EDT WED APR 25 2018

NOTE: "fair" indicates few or no clouds below 12,000 feet with no
significant weather and/or obstructions to visibility.

Not all stations are quality controlled. Use data with caution,
especially dewpoint observations.

SCZ027-030-031-034>040-042>050-251700-
...Southeast South Carolina...

CITY           SKY/WX    TMP DP  RH WIND       PRES   REMARKS
N Charleston   FAIR      75  56  51 W10       29.82S
Waterfront Prk   N/A     71  56  58 W7G15     29.67S
Mount Pleasant FAIR      73  57  56 W12       29.82S
Johns Island   FAIR      75  57  53 W9G18     29.82F
Pinopolis        N/A     66  61  82 VRB2      29.74S
Moncks Corner  PTSUNNY   72  54  53 SW8       29.81F
Summerville    FAIR      72  54  53 W8G16     29.83F
Beaufort MCAS  FAIR      75  57  53 W12G17    29.85S
Beaufort Arpt  FAIR      73  55  53 W9G18     29.83F
Hilton Head Is SUNNY     73  55  53 SW8       29.86F
Walterboro     FAIR      73  55  53 W13       29.84F
Allendale      FAIR      73  55  53 VRB5G13   29.84F

...Southern Midlands and Pee Dee...

CITY           SKY/WX    TMP DP  RH WIND       PRES   REMARKS
Georgetown     FAIR      73  54  49 W14G21    29.81F
Kingstree      PTSUNNY   70  54  56 W10       29.80S
Orangeburg     FAIR      71  55  56 W9        29.83S
Barnwell       NOT AVBL
Aiken          FAIR      72  55  56 SW6       29.86F
Manning        PTSUNNY   66  52  59 W8        29.81S
Columbia       FAIR      73  56  54 W7        29.81F
Sumter         FAIR      73  55  52 W5        29.78F
Florence       FAIR      72  57  59 W10       29.78F
Myrtle Beach   FAIR      73  57  57 VRB5      29.81S
N Myrtle Beach PTSUNNY   70  60  70 S14       29.78F

$$

GAZ063-065-086>088-099>101-113>116-118-119-134>141-150-251700-
...Southeast Georgia...

CITY           SKY/WX    TMP DP  RH WIND       PRES   REMARKS
Savannah Arpt  FAIR      76  54  46 W18       29.86F
Hunter AAF     FAIR      75  55  49 W15       29.84F
Fort Stewart   FAIR      74  55  50 W10       29.86F
Statesboro     FAIR      73  51  44 NW13G18   29.86F
Sylvania       PTSUNNY   73  59  61 NW10      29.87F
Claxton        FAIR      73  57  56 W10G20    29.88F

...CSRA, Central and far Southeast Georgia...

CITY           SKY/WX    TMP DP  RH WIND       PRES   REMARKS
Thomson        FAIR      71  53  53 N9G17     29.91F
Augusta-Bush   FAIR      72  55  55 W8        29.84F
Augusta-Daniel FAIR      73  55  53 NW9       29.86S
Swainsboro     PTSUNNY   72  55  56 W12G23    29.89F
Vidalia        PTSUNNY   72  57  60 NW12G20   29.89F
Eastman        PTSUNNY   71  46  40 W7G17     29.94S
Hazlehurst     FAIR      74  52  45 W7        29.89F
Alma           FAIR      74  55  51 W9        29.91F
Waycross       FAIR      76  50  40 NW13      29.91F
Jesup          FAIR      75  52  43 NW14G20   29.90F
Baxley         FAIR      70  54  56 W9G18     29.90F
Brunswick      FAIR      73  54  49 W14       29.90F
Saint Simons   FAIR      74  56  53 SW15G21   29.90F

$$

SCZ027-028-034-036>038-045-046-048>050-GAZ119-141-251700-
...Lake and Supplemental Coastal Observations...

STATION/POSITION TIME  TEMP    WIND        PRES    WAVE   SWELL
                       AIR SEA DIR/SP/G            HT/PER HT/PER/DIR
                 (UTC) (F)     (DEG/KT/KT) (MB)    (FT/S) (FT/S/D)
Winyah Bay       1545   71     250/  9     1009.0S
Lake Murray      1520   67     280/  5/  9 1009.1
ACE Basin NERRS  1545   72     350/  5       N/A
Fort Pulaski     1600          250/ 10/ 15   N/A
Sapelo Island    1600   72     260/ 11     1012.0

$$

ANZ835-935-AMZ111-154-330-350-352-354-370-450-454-472-251700-
...C-MAN and Buoy Observations...

STATION/POSITION TIME  TEMP    WIND        PRES    WAVE   SWELL
                       AIR SEA DIR/SP/G            HT/PER HT/PER/DIR
                 (UTC) (F)     (DEG/KT/KT) (MB)    (FT/S) (FT/S/D)
Buoy 41004       1610      69  240/ 16/ 19 1010.5
Buoy 41008       1550   65 66  220/  8/ 10 1012.3F   3/ 9   3/ 80/ 9
Folly Beach CMAN 1600   67     210/ 16/ 18 1010.7F
Capers Nearshore 1608   65 65  240/ 16/ 19 1010.0S
Fripp Nearshore  1608   66 66  230/ 10/ 12 1010.5F


STATION/POSITION TIME  TEMP    WIND        PRES    WAVE   SWELL
                       AIR SEA DIR/SP/G            HT/PER HT/PER/DIR
                 (UTC) (F)     (DEG/KT/KT) (MB)    (FT/S) (FT/S/D)
5E St. Marys GA  1600      69                N/A     2/ 9
Frying Pan Buoy  1610   67 70  240/ 14/ 16 1009.5
Buoy 41025       1610   69 70  240/ 14/ 17 1007.8
Cape Lookout NC  1600          230/ 11/ 14 1008.3R
Buoy 41002       1610   73 73  200/ 17/ 21 1010.2
Buoy 41010       1610   73 75  270/ 14/ 17 1013.8
St Augustine FL  1600   73 68  270/  6/  9 1014.3F


$$



USA.gov is the U.S. government's official web portal to all federal, state and local government web resources and services.